Printer-friendly version
Follow the MPC on Twitter Follow the MPC on Facebook The MPC blog
Minor Planet Center

MPEC 2009-D39 : COMET P/2001 CV8 = 2009 D1 (LINEAR)

The following Minor Planet Electronic Circular may be linked-to from your own Web pages, but must not otherwise be redistributed electronically.

A form allowing access to any MPEC is at the bottom of this page.


Read MPEC 2009-D38 Read MPEC 2009-D40


M.P.E.C. 2009-D39                                Issued 2009 Feb. 20, 19:36 UT

     The Minor Planet Electronic Circulars contain information on unusual
         minor planets and routine data on comets.  They are published
   on behalf of Commission 20 of the International Astronomical Union by the
          Minor Planet Center, Smithsonian Astrophysical Observatory,
                          Cambridge, MA 02138, U.S.A.

             Prepared using the Tamkin Foundation Computer Network

                              MPC@CFA.HARVARD.EDU
          URL http://www.cfa.harvard.edu/iau/mpc.html  ISSN 1523-6714

                      COMET P/2001 CV8 = 2009 D1 (LINEAR)

Observations:
    PK09D010  C2009 02 19.53123 14 25 47.23 -18 07 57.9          20.9 T ED039291
    PK09D010  C2009 02 19.54112 14 25 47.49 -18 08 01.9          20.8 T ED039291
    PK09D010  C2009 02 19.54978 14 25 47.71 -18 08 05.6          21.0 T ED039291
    PK09D010  C2009 02 20.49075 14 26 12.21 -18 14 49.9                 ED039291
    PK09D010  C2009 02 20.50000 14 26 12.30 -18 14 54.4          20.7 T ED039291
    PK09D010  C2009 02 20.50910 14 26 12.53 -18 14 59.1                 ED039291

Observer details:
291 LPL/Spacewatch II.  Observer J. V. Scotti.  1.8-m f/2.7 reflector + CCD.

Orbital elements:
    P/2001 CV8 = 2009 D1 (LINEAR)
Epoch 2001 Feb. 20.0 TT = JDT 2451960.5
T 2001 Feb. 12.27294 TT                                 MPC
q   2.1519939            (2000.0)            P               Q
n   0.12904653     Peri.  151.42308     -0.87779619     -0.47903427
a   3.8782740      Node   359.95400     +0.40415683     -0.74044715
e   0.4451156      Incl.    9.04202     +0.25715969     -0.47144903
P   7.64

Epoch 2008 Oct. 21.0 TT = JDT 2454760.5
T 2008 Oct. 10.97675 TT                                 MPC
q   2.1598786            (2000.0)            P               Q
n   0.12868021     Peri.  151.59703     -0.87874631     -0.47728906
a   3.8856309      Node   359.89315     +0.40279446     -0.74126337
e   0.4441370      Incl.    9.03508     +0.25604991     -0.47193620
P   7.66
Residuals in seconds of arc
010201 704  1.9+  0.8+    010215 473  0.5+  0.8-    010318 349 (4.5-  0.9+)
010201 704  0.6+  1.6+    010215 473  0.3+  1.2-    010319 704  0.8+  1.1+
010201 704  0.4+  0.4+    010215 473  1.1-  0.6-    010319 704  0.1-  0.2+
010201 704  1.2-  0.5-    010216 372  0.6+  0.5+    010319 704  0.7+  0.2-
010202 704  1.4+  1.2+    010216 349  0.9-  0.5-    010319 704  0.0   0.6+
010202 704  0.6-  0.1+    010216 349  0.6-  1.2-    010319 704  1.3+  0.3+
010202 704  1.5-  0.3-    010216 349  0.1+  0.2-    010319 704 (0.4+  2.1+)
010202 704  0.7-  0.2+    010217 704  0.6+  0.0     010319 704  0.6-  0.4+
010203 704  0.4+  1.4+    010217 704  0.4-  0.5-    010319 704  1.2+  0.4-
010203 704  0.3+  0.9-    010217 704  0.1-  0.4+    010319 704  1.5-  0.3+
010203 704  0.5-  0.1+    010217 704  0.5+  1.2+    010319 704  0.2-  0.3+
010203 704  0.6-  0.6-    010217 704  0.2-  0.2+    010320 402  0.4+  0.2+
010204 673  0.9-  0.8+    010219 699  0.4-  0.3+    010320 402  0.1-  0.1+
010204 673  0.2+  0.4+    010219 699  0.1-  0.5+    010320 402  0.9-  0.7+
010205 682 (2.8+  0.7-)   010219 699  0.1-  0.7+    010321 402  0.6-  0.4-
010205 682  0.5-  1.1+    010219 699  0.9-  0.7+    010321 402  0.8-  0.8-
010205 704  0.7+  0.4-    010219 360  0.6+  0.1-    010321 402 (2.0-  0.8+)
010205 704  0.5-  0.2-    010219 360  0.9+  0.3-    010326 704  0.1-  0.7+
010205 704  0.3+  0.8-    010220 704  0.2+  0.4+    010326 704  0.9+  1.1-
010205 704  0.2-  0.9-    010220 704  0.0   0.4+    010326 704  0.6+  0.1-
010206 850  0.5-  1.5-    010220 704  0.5+  0.1-    010326 704  0.2+  0.2-
010206 850 (3.4+  0.9-)   010220 704  0.3+  0.8-    010326 704  0.2-  0.1+
010210 046  1.8+  1.0+    010220 348  1.0-  0.9+    010329 699  1.1-  0.2+
010210 046  0.5+  1.3+    010220 348  1.4-  1.3-    010329 699  0.1+  0.4-
010210 046  0.8+  0.2-    010220 903  1.2-  0.4-    010329 699  0.1+  0.1+
010210 046  0.6+  1.2+    010220 903  0.9-  0.5-    010329 699  0.4+  0.3-
010210 046  0.1-  1.1+    010220 903  0.3-  0.9-    010329 608  0.3+  0.1+
010210 046  0.3-  0.2-    010222 365  0.1+  0.7-    010329 608  0.1+  0.4-
010212 322  1.4+  1.0-    010222 365  0.0   1.2-    010329 608  0.1-  0.4-
010212 322 (3.6-  0.6-)   010222 365  0.2-  0.4-    010330 682  0.1+  0.6-
010212 322  1.9-  1.2-    010222 170  1.2-  0.5-    010330 682  1.2+  0.2-
010214 912 (2.8-  1.0+)   010223 170 (2.5-  0.4+)   010331 704  0.6+  0.4+
010214 912  1.9-  1.3+    010226 322  1.2-  0.8-    010331 704  0.1+  0.3-
010214 912  1.4-  0.3+    010226 322  1.6-  0.2-    010331 704  0.2+  0.0
010214 349 (2.1-  0.8+)   010226 322  0.7+  1.7+    010331 704  0.7-  0.2+
010214 349  1.5+  0.2+    010226 360  0.7+  0.0     010331 704  0.3-  0.2+
010214 349  0.1-  0.2-    010226 360  0.7+  0.1-    010416 699  0.6+  0.2+
010214 349  0.8-  0.3+    010302 355  0.2+  0.0     010416 699  0.2-  0.6-
010214 611  1.0+  0.4+    010302 355  0.2+  0.7-    010416 699  1.3+  0.6-
010214 611  0.8+  0.3-    010302 355  0.6-  0.7-    010416 699  0.7+  0.1+
010215 106  0.3-  1.5-    010303 704  1.3+  0.0     010422 704 (2.3-  0.3-)
010215 106  0.9+  0.5-    010303 704  0.8-  1.0+    010422 704  1.2-  0.4+
010215 106  0.6+  0.1-    010303 704  0.4+  0.4+    010422 704  1.7-  0.0
010215 950  0.5+  0.3+    010303 704  0.0   0.1-    010516 360 (0.5+  3.3-)
010215 950  0.5+  0.1+    010313 608  1.8+  1.3+    010516 360 (0.1+  2.8-)
010215 372  0.0   0.2-    010313 608 (2.8+  2.3+)   010516 360 (1.1-  3.7-)
010215 473  1.0-  0.6-    010313 608  1.6+  1.7+    090219 291  0.5-  0.2-
010215 473  0.8-  0.3-    010314 118  0.5+  0.5+    090219 291  0.3-  0.1+
010215 473  1.1-  0.5+    010314 118  0.4+  0.3+    090219 291  0.3-  0.1+
010215 473  1.3+  0.6-    010314 118  0.4+  0.4+    090220 291  1.4+  0.5+
010215 473 (2.2+  0.5-)   010315 360  0.3+  0.4+    090220 291  0.3-  0.0
010215 473 (5.9-  1.8-)   010315 360  0.6+  0.5+    090220 291  0.1-  0.9-
010215 473  1.4-  1.1-    010318 349 (5.7-  0.2-)

Ephemeris:
    P/2001 CV8 = 2009 D1 (LINEAR)
Date    TT    R. A. (2000) Decl.     Delta      r     Elong.  Phase   m1    m2
2009 02 18    14 25.08   -17 56.7    1.858    2.378   109.5    23.1  18.1
2009 02 28    14 28.53   -19 05.1    1.775    2.409   118.4    21.2  18.1
2009 03 10    14 29.03   -20 01.9    1.703    2.443   127.9    18.7  18.0
2009 03 20    14 26.57   -20 45.6    1.646    2.477   138.0    15.6  18.0
2009 03 30    14 21.34   -21 14.4    1.606    2.513   148.6    11.9  18.0
2009 04 09    14 13.97   -21 27.6    1.588    2.550   159.3     8.0  18.1
2009 04 19    14 05.38   -21 25.9    1.595    2.588   168.8     4.3  18.1
2009 04 29    13 56.69   -21 12.2    1.628    2.626   170.4     3.7  18.3
2009 05 09    13 49.01   -20 51.4    1.687    2.666   162.0     6.7  18.4
2009 05 19    13 43.13   -20 28.9    1.772    2.706   151.9    10.2  18.6
2009 05 29    13 39.54   -20 09.8    1.878    2.747   141.8    13.2  18.8
2009 06 08    13 38.41   -19 57.6    2.004    2.789   132.2    15.6  19.0
2009 06 18    13 39.65   -19 54.2    2.145    2.830   123.1    17.5  19.2
2009 06 28    13 43.07   -20 00.3    2.298    2.873   114.5    18.8  19.4
2009 07 08    13 48.41   -20 15.6    2.461    2.915   106.4    19.5  19.6
2009 07 18    13 55.42   -20 38.9    2.630    2.958    98.6    19.9  19.8

Brian G. Marsden             (C) Copyright 2009 MPC           M.P.E.C. 2009-D39

Read MPEC 2009-D38 Read MPEC 2009-D40


MPEC number:

Enter an MPEC number in one of the following forms:

  • 1997-B01 (the full form)
  • J97B01 (the packed version of the full form)
  • B01 (the abbreviated form)

Valid HTML 4.01!